| time (UTC) | temp C | wind direction | speed KPH | gust KPH | rain 1hr cm | rain 24hr cm | rain mn cm | humidity % | barometer mb |
| 20260509085704 | 14 | 168 | 0.0 | 3.2 | 0.00 | 0.00 | 0.00 | 79 | 1014.0 |
| 20260509085204 | 14 | 168 | 0.0 | 3.2 | 0.00 | 0.00 | 0.00 | 79 | 1014.0 |
| 20260509084706 | 14 | 198 | 0.0 | 3.2 | 0.00 | 0.00 | 0.00 | 79 | 1014.0 |
| 20260509083703 | 14 | 202 | 0.0 | 3.2 | 0.00 | 0.00 | 0.00 | 79 | 1014.0 |
| 20260509082159 | 14 | 200 | 0.0 | 3.2 | 0.00 | 0.00 | 0.00 | 78 | 1014.1 |
| 20260509081658 | 14 | 201 | 0.0 | 3.2 | 0.00 | 0.00 | 0.00 | 78 | 1014.1 |
| 20260509080652 | 14 | 197 | 0.0 | 1.6 | 0.00 | 0.00 | 0.00 | 77 | 1014.1 |
| 20260509080157 | 14 | 195 | 0.0 | 3.2 | 0.00 | 0.00 | 0.00 | 77 | 1014.2 |
| 20260509075652 | 14 | 195 | 0.0 | 3.2 | 0.00 | 0.00 | 0.00 | 77 | 1014.2 |
| 20260509075148 | 13 | 195 | 0.0 | 3.2 | 0.00 | 0.00 | 0.00 | 77 | 1014.3 |
| 20260509074705 | 13 | 195 | 0.0 | 3.2 | 0.00 | 0.00 | 0.00 | 76 | 1014.3 |
| 20260509074149 | 13 | 196 | 0.0 | 3.2 | 0.00 | 0.00 | 0.00 | 76 | 1014.4 |
| 20260509073649 | 13 | 192 | 0.0 | 3.2 | 0.00 | 0.00 | 0.00 | 76 | 1014.5 |
| 20260509072654 | 13 | 188 | 0.0 | 3.2 | 0.00 | 0.00 | 0.00 | 76 | 1014.5 |
| 20260509071649 | 13 | 184 | 0.0 | 3.2 | 0.00 | 0.00 | 0.00 | 75 | 1014.4 |
| 20260509071147 | 13 | 184 | 0.0 | 3.2 | 0.00 | 0.00 | 0.00 | 75 | 1014.3 |
| 20260509070645 | 13 | 184 | 0.0 | 3.2 | 0.00 | 0.00 | 0.00 | 75 | 1014.4 |
| 20260509070145 | 13 | 191 | 0.0 | 3.2 | 0.00 | 0.00 | 0.00 | 75 | 1014.4 |
| 20260509065646 | 13 | 191 | 0.0 | 3.2 | 0.00 | 0.00 | 0.00 | 75 | 1014.3 |
| 20260509065147 | 13 | 174 | 0.0 | 3.2 | 0.00 | 0.00 | 0.00 | 74 | 1014.3 |
| 20260509064647 | 13 | 174 | 0.0 | 4.8 | 0.00 | 0.00 | 0.00 | 74 | 1014.4 |
| 20260509064143 | 13 | 174 | 0.0 | 4.8 | 0.00 | 0.00 | 0.00 | 74 | 1014.5 |
| 20260509062642 | 13 | 141 | 0.0 | 1.6 | 0.00 | 0.00 | 0.00 | 73 | 1014.4 |
| 20260509062149 | 13 | 142 | 0.0 | 1.6 | 0.00 | 0.00 | 0.00 | 73 | 1014.5 |
| 20260509061144 | 13 | 136 | 0.0 | 1.6 | 0.00 | 0.00 | 0.00 | 72 | 1014.4 |
| 20260509060637 | 13 | 136 | 0.0 | 1.6 | 0.00 | 0.00 | 0.00 | 71 | 1014.4 |
| 20260509060144 | 13 | 136 | 0.0 | 1.6 | 0.00 | 0.00 | 0.00 | 71 | 1014.4 |
| 20260509055640 | 13 | 132 | 0.0 | 1.6 | 0.00 | 0.00 | 0.00 | 71 | 1014.5 |
| 20260509055145 | 13 | 132 | 0.0 | 1.6 | 0.00 | 0.00 | 0.00 | 71 | 1014.6 |
| 20260509054638 | 13 | 133 | 0.0 | 3.2 | 0.00 | 0.00 | 0.00 | 71 | 1014.5 |
| 20260509053640 | 13 | 133 | 0.0 | 1.6 | 0.00 | 0.00 | 0.00 | 70 | 1014.5 |
| 20260509052635 | 13 | 133 | 0.0 | 1.6 | 0.00 | 0.00 | 0.00 | 70 | 1014.5 |
| 20260509052133 | 13 | 133 | 0.0 | 4.8 | 0.00 | 0.00 | 0.00 | 70 | 1014.6 |
| 20260509051636 | 13 | 133 | 0.0 | 4.8 | 0.00 | 0.00 | 0.00 | 70 | 1014.6 |
| 20260509050133 | 13 | 240 | 0.0 | 3.2 | 0.00 | 0.00 | 0.00 | 70 | 1014.6 |
| 20260509045633 | 13 | 238 | 0.0 | 3.2 | 0.00 | 0.00 | 0.00 | 70 | 1014.8 |
| 20260509045134 | 13 | 247 | 0.0 | 3.2 | 0.00 | 0.00 | 0.00 | 70 | 1014.7 |
| 20260509044628 | 13 | 198 | 0.0 | 3.2 | 0.00 | 0.00 | 0.00 | 70 | 1014.7 |
| 20260509044131 | 13 | 198 | 0.0 | 4.8 | 0.00 | 0.00 | 0.00 | 69 | 1014.7 |
| 20260509043623 | 13 | 198 | 0.0 | 4.8 | 0.00 | 0.00 | 0.00 | 69 | 1014.9 |
| 20260509043124 | 13 | 190 | 0.0 | 1.6 | 0.00 | 0.00 | 0.00 | 69 | 1014.9 |
| 20260509042628 | 13 | 190 | 0.0 | 1.6 | 0.00 | 0.00 | 0.00 | 69 | 1015.0 |
| 20260509041617 | 13 | 190 | 0.0 | 3.2 | 0.00 | 0.00 | 0.00 | 68 | 1015.1 |
| 20260509041120 | 13 | 189 | 0.0 | 3.2 | 0.00 | 0.00 | 0.00 | 68 | 1015.1 |
| 20260509040115 | 13 | 201 | 0.0 | 4.8 | 0.00 | 0.00 | 0.00 | 68 | 1015.1 |
| 20260509035611 | 13 | 200 | 0.0 | 4.8 | 0.00 | 0.00 | 0.00 | 68 | 1015.0 |
| 20260509035113 | 13 | 203 | 0.0 | 3.2 | 0.00 | 0.00 | 0.00 | 68 | 1015.0 |
| 20260509034611 | 13 | 203 | 0.0 | 3.2 | 0.00 | 0.00 | 0.00 | 68 | 1015.1 |
| 20260509034110 | 13 | 197 | 0.0 | 3.2 | 0.00 | 0.00 | 0.00 | 68 | 1015.1 |
| 20260509033610 | 13 | 197 | 0.0 | 3.2 | 0.00 | 0.00 | 0.00 | 67 | 1015.2 |
| 20260509032605 | 13 | 202 | 0.0 | 3.2 | 0.00 | 0.00 | 0.00 | 68 | 1015.2 |
| 20260509032108 | 13 | 205 | 0.0 | 3.2 | 0.00 | 0.00 | 0.00 | 67 | 1015.2 |
| 20260509031605 | 13 | 207 | 0.0 | 3.2 | 0.00 | 0.00 | 0.00 | 67 | 1015.1 |
| 20260509031109 | 13 | 207 | 0.0 | 3.2 | 0.00 | 0.00 | 0.00 | 67 | 1014.9 |
| 20260509030603 | 13 | 206 | 0.0 | 1.6 | 0.00 | 0.00 | 0.00 | 67 | 1015.0 |
| 20260509030104 | 13 | 206 | 0.0 | 3.2 | 0.00 | 0.00 | 0.00 | 66 | 1014.8 |
| 20260509025609 | 13 | 206 | 0.0 | 3.2 | 0.00 | 0.00 | 0.00 | 66 | 1014.8 |
| 20260509025103 | 13 | 202 | 0.0 | 1.6 | 0.00 | 0.00 | 0.00 | 66 | 1014.8 |
| 20260509024609 | 13 | 202 | 0.0 | 4.8 | 0.00 | 0.00 | 0.00 | 66 | 1014.8 |
| 20260509024111 | 13 | 202 | 0.0 | 4.8 | 0.00 | 0.00 | 0.00 | 66 | 1014.9 |
| 20260509023601 | 13 | 202 | 0.0 | 0.0 | 0.00 | 0.00 | 0.00 | 65 | 1014.9 |
| 20260509023104 | 13 | 202 | 0.0 | 0.0 | 0.00 | 0.00 | 0.00 | 65 | 1014.9 |
| 20260509022110 | 13 | 202 | 0.0 | 1.6 | 0.00 | 0.00 | 0.00 | 66 | 1015.0 |
| 20260509021603 | 13 | 202 | 0.0 | 3.2 | 0.00 | 0.00 | 0.00 | 65 | 1015.1 |
| 20260509021105 | 13 | 202 | 0.0 | 3.2 | 0.00 | 0.00 | 0.00 | 66 | 1015.0 |
| 20260509020604 | 13 | 205 | 0.0 | 3.2 | 0.00 | 0.00 | 0.00 | 66 | 1014.9 |
| 20260509020105 | 13 | 205 | 0.0 | 3.2 | 0.00 | 0.00 | 0.00 | 66 | 1014.9 |
| 20260509015604 | 14 | 205 | 0.0 | 3.2 | 0.00 | 0.00 | 0.00 | 66 | 1014.9 |
| 20260509015105 | 14 | 205 | 0.0 | 3.2 | 0.00 | 0.00 | 0.00 | 66 | 1015.0 |
| 20260509014605 | 14 | 205 | 0.0 | 3.2 | 0.00 | 0.00 | 0.00 | 66 | 1015.0 |
| 20260509014106 | 14 | 203 | 0.0 | 1.6 | 0.00 | 0.00 | 0.00 | 66 | 1014.8 |
| 20260509013602 | 14 | 199 | 0.0 | 3.2 | 0.00 | 0.00 | 0.00 | 66 | 1015.0 |
| 20260509012549 | 14 | 198 | 0.0 | 4.8 | 0.00 | 0.00 | 0.00 | 66 | 1014.8 |
| 20260509012042 | 14 | 198 | 0.0 | 4.8 | 0.00 | 0.00 | 0.00 | 66 | 1014.8 |
| 20260509011549 | 15 | 186 | 0.0 | 4.8 | 0.00 | 0.00 | 0.00 | 67 | 1014.6 |
| 20260509011036 | 15 | 189 | 0.0 | 4.8 | 0.00 | 0.00 | 0.00 | 67 | 1014.5 |
| 20260509010535 | 15 | 189 | 0.0 | 4.8 | 0.00 | 0.00 | 0.00 | 67 | 1014.6 |
| 20260509010033 | 15 | 166 | 0.0 | 1.6 | 0.00 | 0.00 | 0.00 | 67 | 1014.5 |
| 20260509005534 | 15 | 167 | 0.0 | 3.2 | 0.00 | 0.00 | 0.00 | 67 | 1014.4 |
| 20260509004029 | 15 | 166 | 0.0 | 1.6 | 0.00 | 0.00 | 0.00 | 64 | 1014.3 |
| 20260509003533 | 15 | 166 | 0.0 | 4.8 | 0.00 | 0.00 | 0.00 | 64 | 1014.2 |
| 20260509002528 | 16 | 187 | 0.0 | 1.6 | 0.00 | 0.00 | 0.00 | 63 | 1014.3 |
| 20260509002027 | 16 | 187 | 0.0 | 1.6 | 0.00 | 0.00 | 0.00 | 62 | 1014.2 |
| 20260509001527 | 16 | 187 | 0.0 | 3.2 | 0.00 | 0.00 | 0.00 | 61 | 1014.2 |
| 20260509000528 | 16 | 187 | 0.0 | 3.2 | 0.00 | 0.00 | 0.00 | 60 | 1014.1 |
| 20260508235526 | 16 | 113 | 0.0 | 3.2 | 0.00 | 0.00 | 0.00 | 58 | 1013.9 |
| 20260508234527 | 17 | 112 | 0.0 | 3.2 | 0.00 | 0.00 | 0.00 | 56 | 1013.8 |
| 20260508234027 | 18 | 117 | 0.0 | 1.6 | 0.00 | 0.00 | 0.00 | 54 | 1013.9 |
| 20260508233528 | 18 | 117 | 0.0 | 4.8 | 0.00 | 0.00 | 0.00 | 50 | 1013.8 |
| 20260508233029 | 18 | 120 | 0.0 | 4.8 | 0.00 | 0.00 | 0.00 | 46 | 1013.7 |
| 20260508232525 | 18 | 141 | 1.6 | 4.8 | 0.00 | 0.00 | 0.00 | 47 | 1013.7 |
| 20260508231526 | 18 | 202 | 0.0 | 3.2 | 0.00 | 0.00 | 0.00 | 46 | 1013.4 |
| 20260508231022 | 18 | 144 | 0.0 | 4.8 | 0.00 | 0.00 | 0.00 | 47 | 1013.3 |
| 20260508230525 | 18 | 122 | 0.0 | 4.8 | 0.00 | 0.00 | 0.00 | 46 | 1013.3 |
| 20260508230021 | 18 | 123 | 0.0 | 3.2 | 0.00 | 0.00 | 0.00 | 48 | 1013.5 |
| 20260508225521 | 18 | 123 | 1.6 | 3.2 | 0.00 | 0.00 | 0.00 | 47 | 1013.5 |
| 20260508225021 | 18 | 222 | 0.0 | 6.4 | 0.00 | 0.00 | 0.00 | 47 | 1013.4 |
| 20260508224014 | 19 | 158 | 1.6 | 6.4 | 0.00 | 0.00 | 0.00 | 46 | 1013.6 |
| 20260508223517 | 19 | 170 | 1.6 | 6.4 | 0.00 | 0.00 | 0.00 | 45 | 1013.5 |
| 20260508223015 | 19 | 191 | 0.0 | 4.8 | 0.00 | 0.00 | 0.00 | 47 | 1013.4 |
| 20260508222513 | 19 | 150 | 1.6 | 4.8 | 0.00 | 0.00 | 0.00 | 47 | 1013.4 |
| 20260508222012 | 19 | 223 | 1.6 | 6.4 | 0.00 | 0.00 | 0.00 | 45 | 1013.5 |
| 20260508221511 | 19 | 51 | 0.0 | 6.4 | 0.00 | 0.00 | 0.00 | 44 | 1013.5 |
| 20260508221014 | 19 | 144 | 0.0 | 4.8 | 0.00 | 0.00 | 0.00 | 47 | 1013.3 |
| 20260508220509 | 19 | 140 | 1.6 | 6.4 | 0.00 | 0.00 | 0.00 | 46 | 1013.5 |
| 20260508220011 | 19 | 180 | 1.6 | 6.4 | 0.00 | 0.00 | 0.00 | 45 | 1013.3 |
| 20260508215006 | 19 | 211 | 1.6 | 6.4 | 0.00 | 0.00 | 0.00 | 46 | 1013.3 |
| 20260508214503 | 19 | 156 | 1.6 | 6.4 | 0.00 | 0.00 | 0.00 | 44 | 1013.3 |
| 20260508214005 | 19 | 145 | 1.6 | 8.0 | 0.00 | 0.00 | 0.00 | 43 | 1013.4 |
| 20260508212503 | 19 | 116 | 1.6 | 4.8 | 0.00 | 0.00 | 0.00 | 44 | 1013.5 |
| 20260508212005 | 19 | 175 | 1.6 | 4.8 | 0.00 | 0.00 | 0.00 | 44 | 1013.5 |
| 20260508211008 | 20 | 148 | 0.0 | 4.8 | 0.00 | 0.00 | 0.00 | 47 | 1013.5 |
| 20260508210500 | 19 | 135 | 1.6 | 9.7 | 0.00 | 0.00 | 0.00 | 46 | 1013.4 |
| 20260508205506 | 19 | 115 | 1.6 | 9.7 | 0.00 | 0.00 | 0.00 | 46 | 1013.5 |
| 20260508205000 | 20 | 105 | 1.6 | 6.4 | 0.00 | 0.00 | 0.00 | 44 | 1013.3 |
| 20260508204500 | 20 | 168 | 1.6 | 6.4 | 0.00 | 0.00 | 0.00 | 45 | 1013.6 |
| 20260508204000 | 20 | 153 | 1.6 | 9.7 | 0.00 | 0.00 | 0.00 | 45 | 1013.5 |
| 20260508203458 | 20 | 160 | 1.6 | 9.7 | 0.00 | 0.00 | 0.00 | 45 | 1013.5 |
| 20260508202459 | 20 | 163 | 1.6 | 9.7 | 0.00 | 0.00 | 0.00 | 44 | 1013.7 |
| 20260508201451 | 20 | 145 | 1.6 | 6.4 | 0.00 | 0.00 | 0.00 | 45 | 1013.6 |
| 20260508200943 | 20 | 137 | 1.6 | 6.4 | 0.00 | 0.00 | 0.00 | 44 | 1013.8 |
| 20260508200437 | 20 | 144 | 0.0 | 4.8 | 0.00 | 0.00 | 0.00 | 48 | 1013.6 |
| 20260508195935 | 20 | 107 | 1.6 | 4.8 | 0.00 | 0.00 | 0.00 | 47 | 1013.6 |
| 20260508194935 | 20 | 107 | 1.6 | 6.4 | 0.00 | 0.00 | 0.00 | 43 | 1013.6 |
| 20260508194431 | 19 | 165 | 1.6 | 6.4 | 0.00 | 0.00 | 0.00 | 47 | 1013.6 |
| 20260508193931 | 18 | 169 | 1.6 | 4.8 | 0.00 | 0.00 | 0.00 | 48 | 1013.6 |
| 20260508193433 | 18 | 19 | 1.6 | 4.8 | 0.00 | 0.00 | 0.00 | 55 | 1013.9 |
| 20260508192930 | 19 | 40 | 1.6 | 4.8 | 0.00 | 0.00 | 0.00 | 53 | 1013.8 |
| 20260508192433 | 20 | 103 | 1.6 | 3.2 | 0.00 | 0.00 | 0.00 | 52 | 1014.1 |
| 20260508191933 | 20 | 113 | 1.6 | 8.0 | 0.00 | 0.00 | 0.00 | 37 | 1014.1 |
| 20260508191432 | 20 | 94 | 1.6 | 9.7 | 0.00 | 0.00 | 0.00 | 38 | 1014.0 |
| 20260508190435 | 19 | 122 | 1.6 | 11.3 | 0.00 | 0.00 | 0.00 | 41 | 1014.2 |
| 20260508185932 | 19 | 159 | 1.6 | 11.3 | 0.00 | 0.00 | 0.00 | 40 | 1014.1 |
| 20260508185436 | 20 | 99 | 1.6 | 9.7 | 0.00 | 0.00 | 0.00 | 39 | 1014.3 |
| 20260508184431 | 19 | 144 | 1.6 | 8.0 | 0.00 | 0.00 | 0.00 | 43 | 1014.3 |
| 20260508183430 | 20 | 149 | 1.6 | 8.0 | 0.00 | 0.00 | 0.00 | 43 | 1014.3 |
| 20260508182428 | 19 | 149 | 0.0 | 4.8 | 0.00 | 0.00 | 0.00 | 45 | 1014.5 |
| 20260508181428 | 18 | 159 | 1.6 | 11.3 | 0.00 | 0.00 | 0.00 | 44 | 1014.5 |
| 20260508180924 | 18 | 136 | 1.6 | 8.0 | 0.00 | 0.00 | 0.00 | 45 | 1014.6 |
| 20260508180422 | 18 | 159 | 1.6 | 8.0 | 0.00 | 0.00 | 0.00 | 42 | 1014.7 |
| 20260508175422 | 18 | 167 | 1.6 | 9.7 | 0.00 | 0.00 | 0.00 | 46 | 1014.9 |
| 20260508174414 | 18 | 113 | 1.6 | 4.8 | 0.00 | 0.00 | 0.00 | 51 | 1014.8 |
| 20260508173912 | 17 | 336 | 0.0 | 3.2 | 0.00 | 0.00 | 0.00 | 60 | 1014.9 |
| 20260508173415 | 18 | 322 | 0.0 | 3.2 | 0.00 | 0.00 | 0.00 | 55 | 1014.9 |
| 20260508172915 | 17 | 320 | 1.6 | 3.2 | 0.00 | 0.00 | 0.00 | 49 | 1015.0 |
| 20260508171411 | 17 | 134 | 0.0 | 0.0 | 0.00 | 0.00 | 0.00 | 57 | 1015.0 |
| 20260508165411 | 17 | 25 | 0.0 | 3.2 | 0.00 | 0.00 | 0.00 | 58 | 1015.2 |
| 20260508164859 | 17 | 350 | 0.0 | 3.2 | 0.00 | 0.00 | 0.00 | 58 | 1015.1 |
| 20260508164354 | 16 | 355 | 0.0 | 3.2 | 0.00 | 0.00 | 0.00 | 56 | 1015.1 |
| 20260508162837 | 16 | 159 | 1.6 | 3.2 | 0.00 | 0.00 | 0.00 | 61 | 1015.4 |
| 20260508162332 | 16 | 165 | 1.6 | 6.4 | 0.00 | 0.00 | 0.00 | 58 | 1015.6 |
| 20260508161833 | 16 | 165 | 0.0 | 6.4 | 0.00 | 0.00 | 0.00 | 57 | 1015.6 |
| 20260508161332 | 16 | 167 | 0.0 | 4.8 | 0.00 | 0.00 | 0.00 | 56 | 1015.7 |
| 20260508160834 | 16 | 168 | 0.0 | 3.2 | 0.00 | 0.00 | 0.00 | 57 | 1015.6 |
| 20260508160334 | 16 | 169 | 0.0 | 3.2 | 0.00 | 0.00 | 0.00 | 54 | 1015.7 |
| 20260508155837 | 16 | 169 | 0.0 | 3.2 | 0.00 | 0.00 | 0.00 | 50 | 1015.7 |
| 20260508154833 | 16 | 180 | 1.6 | 1.6 | 0.00 | 0.00 | 0.00 | 52 | 1016.0 |
| 20260508154333 | 16 | 181 | 0.0 | 3.2 | 0.00 | 0.00 | 0.00 | 53 | 1016.0 |
| 20260508153833 | 15 | 186 | 0.0 | 3.2 | 0.00 | 0.00 | 0.00 | 52 | 1016.1 |
| 20260508153400 | 15 | 186 | 1.6 | 4.8 | 0.00 | 0.00 | 0.00 | 48 | 1016.1 |
| 20260508152333 | 15 | 116 | 0.0 | 3.2 | 0.00 | 0.00 | 0.00 | 48 | 1016.3 |
| 20260508151835 | 15 | 113 | 0.0 | 3.2 | 0.00 | 0.00 | 0.00 | 52 | 1016.3 |
| 20260508150834 | 15 | 113 | 0.0 | 8.0 | 0.00 | 0.00 | 0.00 | 52 | 1016.5 |
| 20260508150330 | 15 | 113 | 0.0 | 8.0 | 0.00 | 0.00 | 0.00 | 51 | 1016.5 |
| 20260508145325 | 14 | 207 | 1.6 | 4.8 | 0.00 | 0.00 | 0.00 | 52 | 1016.6 |
| 20260508144313 | 14 | 196 | 1.6 | 3.2 | 0.00 | 0.00 | 0.00 | 52 | 1016.6 |
| 20260508143806 | 14 | 200 | 1.6 | 9.7 | 0.00 | 0.00 | 0.00 | 55 | 1016.8 |
| 20260508143306 | 14 | 199 | 1.6 | 9.7 | 0.00 | 0.00 | 0.00 | 52 | 1016.7 |
| 20260508142306 | 13 | 178 | 1.6 | 4.8 | 0.00 | 0.00 | 0.00 | 55 | 1016.8 |
| 20260508141808 | 13 | 193 | 1.6 | 4.8 | 0.00 | 0.00 | 0.00 | 63 | 1016.6 |
| 20260508140830 | 13 | 197 | 1.6 | 9.7 | 0.00 | 0.00 | 0.00 | 60 | 1016.6 |
| 20260508135803 | 13 | 199 | 1.6 | 9.7 | 0.00 | 0.00 | 0.00 | 57 | 1016.4 |
| 20260508135308 | 13 | 197 | 1.6 | 9.7 | 0.00 | 0.00 | 0.00 | 63 | 1016.4 |
| 20260508133801 | 13 | 190 | 1.6 | 3.2 | 0.00 | 0.00 | 0.00 | 62 | 1016.5 |
| 20260508133303 | 13 | 199 | 1.6 | 6.4 | 0.00 | 0.00 | 0.00 | 62 | 1016.5 |
| 20260508132803 | 13 | 196 | 1.6 | 6.4 | 0.00 | 0.00 | 0.00 | 63 | 1016.6 |
| 20260508131802 | 13 | 191 | 1.6 | 4.8 | 0.00 | 0.00 | 0.00 | 66 | 1016.5 |
| 20260508131304 | 13 | 200 | 1.6 | 4.8 | 0.00 | 0.00 | 0.00 | 62 | 1016.6 |
| 20260508130804 | 13 | 202 | 1.6 | 6.4 | 0.00 | 0.00 | 0.00 | 63 | 1016.6 |
| 20260508125807 | 12 | 199 | 1.6 | 6.4 | 0.00 | 0.00 | 0.00 | 63 | 1016.4 |
| 20260508125306 | 12 | 186 | 1.6 | 8.0 | 0.00 | 0.00 | 0.00 | 63 | 1016.6 |
| 20260508124802 | 12 | 186 | 1.6 | 8.0 | 0.00 | 0.00 | 0.00 | 62 | 1016.6 |
| 20260508124301 | 12 | 202 | 1.6 | 12.9 | 0.00 | 0.00 | 0.00 | 64 | 1016.5 |
| 20260508123803 | 12 | 205 | 1.6 | 12.9 | 0.00 | 0.00 | 0.00 | 65 | 1016.3 |
| 20260508122801 | 12 | 188 | 1.6 | 9.7 | 0.00 | 0.00 | 0.00 | 67 | 1016.2 |
| 20260508122306 | 12 | 196 | 3.2 | 14.5 | 0.00 | 0.00 | 0.00 | 68 | 1016.1 |
| 20260508121808 | 12 | 194 | 1.6 | 14.5 | 0.00 | 0.00 | 0.00 | 68 | 1016.1 |
| 20260508120802 | 12 | 195 | 1.6 | 8.0 | 0.00 | 0.00 | 0.00 | 68 | 1016.0 |
| 20260508120303 | 12 | 203 | 1.6 | 6.4 | 0.00 | 0.00 | 0.00 | 70 | 1016.0 |
| 20260508115305 | 12 | 201 | 1.6 | 14.5 | 0.00 | 0.00 | 0.00 | 73 | 1015.9 |
| 20260508114804 | 12 | 200 | 1.6 | 14.5 | 0.00 | 0.00 | 0.00 | 72 | 1015.9 |
| 20260508114301 | 11 | 196 | 1.6 | 8.0 | 0.00 | 0.00 | 0.00 | 71 | 1015.8 |
| 20260508113257 | 11 | 200 | 0.0 | 1.6 | 0.00 | 0.00 | 0.00 | 75 | 1015.7 |
| 20260508112804 | 11 | 200 | 0.0 | 1.6 | 0.00 | 0.00 | 0.00 | 75 | 1015.7 |
| 20260508111754 | 11 | 200 | 1.6 | 3.2 | 0.00 | 0.00 | 0.00 | 75 | 1015.5 |
| 20260508111254 | 10 | 200 | 0.0 | 3.2 | 0.00 | 0.00 | 0.00 | 76 | 1015.4 |
| 20260508110749 | 10 | 196 | 0.0 | 0.0 | 0.00 | 0.00 | 0.00 | 77 | 1015.3 |
| 20260508110248 | 10 | 196 | 0.0 | 0.0 | 0.00 | 0.00 | 0.00 | 77 | 1015.3 |
| 20260508104746 | 10 | 197 | 0.0 | 0.0 | 0.00 | 0.00 | 0.00 | 77 | 1015.0 |
| 20260508104247 | 10 | 197 | 0.0 | 0.0 | 0.00 | 0.00 | 0.00 | 77 | 1015.0 |
| 20260508103249 | 10 | 197 | 0.0 | 1.6 | 0.00 | 0.00 | 0.00 | 77 | 1014.8 |
| 20260508102248 | 10 | 197 | 0.0 | 1.6 | 0.00 | 0.00 | 0.00 | 77 | 1014.7 |
| 20260508101744 | 10 | 207 | 0.0 | 1.6 | 0.00 | 0.00 | 0.00 | 77 | 1014.6 |
| 20260508101245 | 10 | 207 | 0.0 | 1.6 | 0.00 | 0.00 | 0.00 | 77 | 1014.5 |
| 20260508100747 | 10 | 209 | 0.0 | 1.6 | 0.00 | 0.00 | 0.00 | 78 | 1014.3 |
| 20260508100249 | 10 | 209 | 0.0 | 1.6 | 0.00 | 0.00 | 0.00 | 78 | 1014.3 |
| 20260508095750 | 10 | 209 | 1.6 | 3.2 | 0.00 | 0.00 | 0.00 | 78 | 1014.3 |
| 20260508095245 | 10 | 209 | 1.6 | 3.2 | 0.00 | 0.00 | 0.00 | 79 | 1014.2 |
| 20260508094250 | 10 | 213 | 0.0 | 3.2 | 0.00 | 0.00 | 0.00 | 80 | 1013.9 |
| 20260508093750 | 10 | 213 | 0.0 | 4.8 | 0.00 | 0.00 | 0.00 | 80 | 1013.8 |
| 20260508093250 | 10 | 210 | 0.0 | 4.8 | 0.00 | 0.00 | 0.00 | 81 | 1013.7 |
| 20260508092747 | 10 | 209 | 1.6 | 3.2 | 0.00 | 0.00 | 0.00 | 82 | 1013.6 |
| 20260508092244 | 10 | 208 | 1.6 | 3.2 | 0.00 | 0.00 | 0.00 | 83 | 1013.6 |
| 20260508091745 | 10 | 208 | 1.6 | 3.2 | 0.00 | 0.00 | 0.00 | 84 | 1013.5 |
| 20260508091241 | 10 | 207 | 1.6 | 3.2 | 0.00 | 0.00 | 0.00 | 84 | 1013.5 |
| 20260508090743 | 10 | 207 | 1.6 | 3.2 | 0.00 | 0.00 | 0.00 | 85 | 1013.5 |